DLH739 EDDM-EDDF

Flight info

Callsign DLH739
Flight time N/A
Altitude 24000
Route GIVMI6Q/08L GIVMI Y101 ERNAS T161 DEBHI DEBHI1C
Aircraft A20N/M-SDE2E3FGHIRWXY/LB1

Departure

Time 2026-05-01 13:07
Airport Munich Airport (EDDM)

Arrival

Time N/A
Airport Frankfurt Main Airport (EDDF)
Time Latitude Longitude Altitude Speed Heading
2026-05-01 12:25 48.35134 11.78346 1466 ft 0 kts 83°
2026-05-01 12:43 48.35134 11.78344 1466 ft 2 kts 83°
2026-05-01 12:43 48.35130 11.78310 1463 ft 3 kts 73°
2026-05-01 12:43 48.35122 11.78278 1460 ft 3 kts 60°
2026-05-01 12:44 48.35109 11.78250 1459 ft 3 kts 45°
2026-05-01 12:44 48.35092 11.78227 1459 ft 3 kts 29°
2026-05-01 12:44 48.35048 11.78209 1456 ft 3 kts 355°
2026-05-01 12:45 48.35044 11.78210 1456 ft 0 kts 353°
2026-05-01 12:48 48.35047 11.78209 1456 ft 2 kts 353°
2026-05-01 12:49 48.35076 11.78204 1457 ft 7 kts 353°
2026-05-01 12:49 48.35151 11.78192 1463 ft 14 kts 354°
2026-05-01 12:49 48.35272 11.78173 1461 ft 20 kts 354°
2026-05-01 12:49 48.35349 11.78119 1466 ft 11 kts 293°
2026-05-01 12:50 48.35351 11.78051 1463 ft 0 kts 262°
2026-05-01 12:52 48.35389 11.77792 1461 ft 21 kts
2026-05-01 12:52 48.35538 11.77783 1462 ft 22 kts 347°
2026-05-01 12:53 48.35766 11.77711 1463 ft 7 kts 355°
2026-05-01 12:53 48.35828 11.77699 1463 ft 10 kts 352°
2026-05-01 12:53 48.35860 11.77693 1466 ft 0 kts 354°
2026-05-01 12:56 48.35862 11.77693 1493 ft 1 kts 354°
2026-05-01 12:57 48.35900 11.77687 1461 ft 11 kts 353°
2026-05-01 12:57 48.35944 11.77372 1460 ft 28 kts 264°
2026-05-01 12:57 48.35920 11.77065 1459 ft 23 kts 260°
2026-05-01 12:58 48.35961 11.76842 1459 ft 24 kts 329°
2026-05-01 12:58 48.36064 11.76811 1466 ft 6 kts 353°
2026-05-01 12:58 48.36117 11.76802 1464 ft 9 kts 355°
2026-05-01 12:59 48.36276 11.76884 1458 ft 15 kts 55°
2026-05-01 12:59 48.36295 11.76987 1460 ft 0 kts 86°
2026-05-01 13:07 48.41350 11.97396 8077 ft 278 kts
2026-05-01 13:07 48.43259 11.96756 9051 ft 289 kts 336°
2026-05-01 13:07 48.44844 11.94872 10060 ft 296 kts 310°
2026-05-01 13:08 48.45780 11.92099 10924 ft 305 kts 285°
2026-05-01 13:08 48.45872 11.88894 11728 ft 313 kts 260°
2026-05-01 13:08 48.45071 11.85841 12541 ft 317 kts 235°
2026-05-01 13:08 48.43622 11.83309 13351 ft 322 kts 231°
2026-05-01 13:09 48.42590 11.80325 14177 ft 324 kts 256°
2026-05-01 13:09 48.42382 11.76960 14879 ft 325 kts 279°
2026-05-01 13:09 48.43028 11.73784 15571 ft 322 kts 302°
2026-05-01 13:09 48.44441 11.71219 16283 ft 318 kts 326°
2026-05-01 13:10 48.46381 11.69703 16954 ft 314 kts 348°
2026-05-01 13:10 48.48533 11.69074 17673 ft 316 kts 353°
2026-05-01 13:10 48.50677 11.68149 18349 ft 326 kts 340°
2026-05-01 13:10 48.52667 11.66433 19039 ft 334 kts 327°
2026-05-01 13:11 48.54440 11.64142 19732 ft 338 kts 319°
2026-05-01 13:11 48.55577 11.62366 20192 ft 341 kts 316°
2026-05-01 13:11 48.55851 11.61911 20304 ft 341 kts 315°
2026-05-01 13:11 48.57418 11.59190 20960 ft 345 kts 314°
2026-05-01 13:12 48.58999 11.56356 21216 ft 361 kts 313°
2026-05-01 13:12 48.60649 11.53387 21392 ft 378 kts 313°
2026-05-01 13:12 48.62382 11.50283 21566 ft 394 kts 313°
2026-05-01 13:12 48.64173 11.47081 21992 ft 401 kts 313°
2026-05-01 13:13 48.65982 11.43850 22646 ft 403 kts 313°
2026-05-01 13:13 48.67785 11.40630 23261 ft 406 kts 313°
2026-05-01 13:13 48.69717 11.37457 23850 ft 406 kts 319°
2026-05-01 13:13 48.71881 11.34719 24402 ft 405 kts 326°
2026-05-01 13:14 48.74223 11.32330 24879 ft 407 kts 329°
2026-05-01 13:14 48.76599 11.29939 25233 ft 412 kts 329°
2026-05-01 13:14 48.78952 11.27552 25343 ft 412 kts 329°
2026-05-01 13:14 48.81331 11.25131 25360 ft 412 kts 329°
2026-05-01 13:15 48.83708 11.22688 25346 ft 412 kts 326°
2026-05-01 13:15 48.85932 11.19919 25345 ft 415 kts 320°
2026-05-01 13:15 48.88050 11.16939 25345 ft 415 kts 320°
2026-05-01 13:15 48.90178 11.13976 25346 ft 415 kts 320°
2026-05-01 13:16 48.92308 11.11019 25352 ft 414 kts 320°
2026-05-01 13:16 48.94437 11.08057 25355 ft 415 kts 320°
2026-05-01 13:16 48.96562 11.05094 25361 ft 415 kts 320°
2026-05-01 13:17 49.02942 10.96157 25377 ft 416 kts 320°
2026-05-01 13:17 49.05068 10.93167 25376 ft 415 kts 320°
2026-05-01 13:18 49.09321 10.87177 25376 ft 415 kts 319°
2026-05-01 13:18 49.11440 10.84183 25373 ft 415 kts 320°
2026-05-01 13:18 49.13559 10.81184 25390 ft 415 kts 320°
2026-05-01 13:18 49.15675 10.78186 25391 ft 415 kts 320°
2026-05-01 13:19 49.17799 10.75175 25390 ft 416 kts 320°
2026-05-01 13:19 49.19922 10.72162 25391 ft 416 kts 319°
2026-05-01 13:19 49.23997 10.65870 25368 ft 417 kts 316°
2026-05-01 13:20 49.25973 10.62691 25359 ft 417 kts 316°
2026-05-01 13:20 49.27988 10.59467 25363 ft 419 kts 316°
2026-05-01 13:20 49.30006 10.56256 25363 ft 419 kts 316°
2026-05-01 13:21 49.34054 10.49844 25364 ft 418 kts 316°
2026-05-01 13:21 49.36029 10.46568 25368 ft 420 kts 311°
2026-05-01 13:21 49.37767 10.42956 25371 ft 421 kts 307°
2026-05-01 13:21 49.39443 10.39256 25365 ft 421 kts 307°
2026-05-01 13:22 49.41130 10.35567 25365 ft 421 kts 307°
2026-05-01 13:22 49.42814 10.31886 25362 ft 420 kts 307°
2026-05-01 13:22 49.44493 10.28210 25347 ft 420 kts 307°
2026-05-01 13:22 49.46169 10.24526 25354 ft 421 kts 307°
2026-05-01 13:23 49.47847 10.20832 25344 ft 421 kts 307°
2026-05-01 13:23 49.49520 10.17142 25348 ft 420 kts 307°
2026-05-01 13:23 49.51190 10.13453 25347 ft 421 kts 307°
2026-05-01 13:23 49.52861 10.09756 25343 ft 421 kts 307°
2026-05-01 13:24 49.54534 10.06050 25347 ft 422 kts 306°
2026-05-01 13:24 49.56187 10.02385 25349 ft 422 kts 306°
2026-05-01 13:24 49.57857 9.98678 25347 ft 421 kts 306°
2026-05-01 13:25 49.61197 9.91245 25334 ft 421 kts 306°
2026-05-01 13:25 49.62865 9.87525 25343 ft 422 kts 306°
2026-05-01 13:25 49.64529 9.83806 25340 ft 422 kts 306°
2026-05-01 13:25 49.66197 9.80066 25341 ft 425 kts 307°
2026-05-01 13:26 49.67878 9.76299 25339 ft 426 kts 307°
2026-05-01 13:26 49.69555 9.72541 25331 ft 425 kts 307°
2026-05-01 13:26 49.71227 9.68791 25334 ft 424 kts 306°
2026-05-01 13:26 49.72895 9.65040 25336 ft 424 kts 307°
2026-05-01 13:27 49.74567 9.61268 25332 ft 426 kts 307°
2026-05-01 13:27 49.76238 9.57500 25334 ft 425 kts 306°
2026-05-01 13:27 49.79557 9.50004 25342 ft 420 kts 306°
2026-05-01 13:28 49.82845 9.42544 25321 ft 421 kts 305°
2026-05-01 13:28 49.84490 9.38784 25335 ft 421 kts 303°
2026-05-01 13:29 49.87039 9.30548 25341 ft 427 kts 290°
2026-05-01 13:29 49.88731 9.21704 25327 ft 425 kts 287°
2026-05-01 13:30 49.92093 9.04107 25327 ft 430 kts 287°
2026-05-01 13:31 49.93783 8.95241 25321 ft 428 kts 287°
2026-05-01 13:31 49.96113 8.83004 25321 ft 427 kts 287°